Location: Newark
(52.3735°N, 16.9806°E)
Time: 04:13:35
(UTC+00:00)

LilacSat-2 - Pass Details

Date: 06 December 2021
Orbit: 511 x 532 km, 97.5° (Epoch: 16 January)

Event Time Altitude Azimuth Distance (km) Brightness Sun altitude
Rises 04:37:54 0° 16° (NNE) 2,690 ? -18.4°
Reaches altitude 10° 04:40:03 10° 21° (NNE) 1,796 ? -18.1°
Maximum altitude 04:43:53 58° 101° (E) 629 ? -17.5°
Drops below altitude 10° 04:47:41 10° 181° (S) 1,783 ? -17.0°
Sets 04:49:49 0° 185° (S) 2,668 ? -16.7°
